Miscellaneous Local Product
Issued by NWS Hastings, NE

Home | Current Version | Previous Version | Graphics & Text | Print | Product List | Glossary On
Versions: 1 2 3 4 5 6 7 8 9 10 11 12 13 14 15 16 17 18 19 20 21 22 23 24 25 26 27 28 29 30 31 32 33 34 35 36 37 38 39 40 41 42 43 44 45 46 47 48 49 50
000
AXUS43 KGID 271902
MISGRI

GID CWA HOURLY WEATHER ROUNDUP
NATIONAL WEATHER SERVICE HASTINGS NE
100 PM CST THU NOV 27 2014

NOTE: "FAIR" INDICATES FEW OR NO CLOUDS BELOW 12,000 FEET WITH NO
SIGNIFICANT WEATHER AND/OR OBSTRUCTIONS TO VISIBILITY.

...SOUTH CENTRAL NEBRASKA...

CITY           SKY/WX    TMP DP  RH WIND       PRES   REMARKS
GRAND ISLAND   MOSUNNY   33  14  45 SE15      30.29F WCI  23
HASTINGS       SUNNY     35  16  45 S14       30.27F WCI  26
KEARNEY        SUNNY     37  18  44 S20       30.26F WCI  27
ORD            CLOUDY    32  15  49 S16       30.23F WCI  21
YORK           SUNNY     32  12  43 S12       30.35F WCI  23
AURORA         SUNNY     33  14  46 SE16      30.31F WCI  22
LEXINGTON      SUNNY     38  21  50 S18       30.22F WCI  29
HOLDREGE       SUNNY     35  19  51 S18G24    30.24F WCI  25
HEBRON         SUNNY     34  12  40 SE12      30.37F WCI  25

...NEBRASKA PANHANDLE...

CITY           SKY/WX    TMP DP  RH WIND       PRES   REMARKS
CHADRON        SUNNY    N/A N/A N/A CALM      30.00F
ALLIANCE       MOSUNNY   52  31  44 W14       30.03F
SCOTTSBLUFF    MOSUNNY   33  26  75 CALM      30.06F
SIDNEY         PTSUNNY   46  33  60 SW10      30.10F

...WESTERN AND NORTH CENTRAL NEBRASKA...

CITY           SKY/WX    TMP DP  RH WIND       PRES   REMARKS
VALENTINE      CLOUDY    36  21  54 S14       30.09F WCI  27
AINSWORTH      PTSUNNY   32  19  59 S18       30.13F WCI  20
ONEILL         CLOUDY    25  15  64 SE16G22   30.24F WCI  13
BROKEN BOW     MOSUNNY   39  21  48 S20G26    30.18F WCI  29
IMPERIAL       MOSUNNY   50  31  48 S10       30.12F
NORTH PLATTE   SUNNY     42  22  44 S10       30.14F
MCCOOK         SUNNY     49  23  36 S8        30.17F

...EASTERN NEBRASKA...

CITY           SKY/WX    TMP DP  RH WIND       PRES   REMARKS
NORFOLK        PTSUNNY   22  13  68 SE15      30.33F WCI   9
SO SIOUX CITY  CLOUDY    14  -1  51 SE10      30.45F WCI   1
TEKAMAH        CLOUDY    18   1  47 SE8       30.45F WCI   8
COLUMBUS       MOSUNNY   27  12  54 SE13      30.36F WCI  16
ALBION         PTSUNNY   27  13  56 SE16      30.31F WCI  14
OMAHA EPPLEY   PTSUNNY   19   3  49 SE7       30.47F WCI  10
OFFUTT AFB     CLOUDY    20   3  47 SE6       30.45F WCI  13
MILLARD        CLOUDY    21  11  65 E6        30.47F WCI  14
LINCOLN        SUNNY     29  13  51 S10       30.42F WCI  20
NEBRASKA CITY  PTSUNNY   25   9  50 E7        30.46F WCI  17
BEATRICE       SUNNY     30  17  56 S9        30.42F WCI  22
FALLS CITY     SUNNY     29  10  45 E6        30.46F WCI  23

...NORTHERN KANSAS...

CITY           SKY/WX    TMP DP  RH WIND       PRES   REMARKS
GOODLAND       SUNNY     61  27  27 S17G25    30.14F
HILL CITY      SUNNY     47  22  37 S17G24    30.23F
NORTON         CLEAR     46  18  31 SE16G23   30.19F
PHILLIPSBURG   SUNNY     46  21  36 SE16G22   30.26F
SMITH CENTER   SUNNY     36  18  48 SE16G25   30.31F WCI  26
BELOIT         SUNNY     37  16  41 SE13      30.32F WCI  29
HAYS           SUNNY     46  19  34 S22G28    30.28F
RUSSELL        SUNNY     43  19  38 S16G26    30.30F
CONCORDIA      SUNNY     37  17  44 S14       30.35F WCI  28
SALINA         SUNNY     43  17  35 S15       30.38F
TOPEKA         SUNNY     37  20  50 S7        30.46F WCI  32



USA.gov is the U.S. government's official web portal to all federal, state and local government web resources and services.